Drummond Island, MI

5:04 PM EDT on July 27, 2017 (GMT -0400)
Drummond Island

Weather History for KDRM - March, 2013

Change the Weather History Date:

Saturday, March 30, 2013

  Actual Average (KCIU) Record (KCIU)
Temperature  
Mean Temperature 32 °F -  
Max Temperature 43 °F 43 °F 61 °F (1993)
Min Temperature 21 °F 23 °F 3 °F (1991)
Degree Days  
Heating Degree Days 33    
Moisture  
Dew Point 25 °F    
Average Humidity 74    
Maximum Humidity 99    
Minimum Humidity 41    
Precipitation  
Precipitation 0.00 in - - ()
Sea Level Pressure  
Sea Level Pressure 30.04 in    
Wind  
Wind Speed 3 mph (South)    
Max Wind Speed 12 mph    
Max Gust Speed 17 mph    
Visibility 10 miles    
Events Rain    
Averages and records for this station are not official NWS values.
T = Trace of Precipitation, MM = Missing Value Source: NWS Daily Summary

Daily Weather History Graph

Daily Weather History Graph

Search for Another Location

Airport or City:

Trip Planner

Search our weather history database for the weather conditions in past years. The results will help you decide how hot, cold, wet, or windy it might be!

Date:

Astronomy

Mar. 30, 2013 Rise Set
Actual Time 7:18 AM EDT 8:01 PM EDT
Civil Twilight 6:48 AM EDT 8:31 PM EDT
Nautical Twilight 6:12 AM EDT 9:07 PM EDT
Astronomical Twilight 5:34 AM EDT 9:44 PM EDT
Moon No Moon Rise 9:00 AM EDT (3/30)
Length of Visible Light 13h 43m
Length of Day
12h 43m
Waning Gibbous, 86% of the Moon is Illuminated
Mar 30
Waning Gibbous
Apr 3
Last Quarter
Apr 10
New
Apr 18
First Quarter
Apr 25
Full

Hourly Weather History & Observations

Time (EDT) Temp. Windchill Dew Point Humidity Pressure Visibility Wind Dir Wind Speed Gust Speed Precip Events Conditions
12:16 AM 27.5 °F - 22.5 °F 81% 30.18 in 10.0 mi Calm Calm - N/A   Clear
12:37 AM 27.9 °F 24.0 °F 22.6 °F 81% 30.18 in 10.0 mi SW 3.5 mph - N/A   Clear
12:56 AM 28.4 °F 24.6 °F 22.1 °F 77% 30.18 in 10.0 mi SW 3.5 mph - N/A   Clear
1:17 AM 26.6 °F 22.6 °F 22.1 °F 83% 30.18 in 10.0 mi WSW 3.5 mph - N/A   Clear
1:37 AM 29.3 °F 25.6 °F 22.8 °F 77% 30.18 in 10.0 mi WSW 3.5 mph - N/A   Clear
2:17 AM 28.8 °F 25.0 °F 23.7 °F 81% 30.18 in 10.0 mi SW 3.5 mph - N/A   Clear
2:36 AM 29.8 °F 26.3 °F 24.3 °F 80% 30.18 in 10.0 mi WSW 3.5 mph - N/A   Clear
2:57 AM 28.9 °F 25.2 °F 23.9 °F 81% 30.17 in 10.0 mi WSW 3.5 mph - N/A   Clear
3:17 AM 26.1 °F - 23.0 °F 88% 30.17 in 10.0 mi Calm Calm - N/A   Clear
3:36 AM 28.6 °F - 24.3 °F 84% 30.17 in 10.0 mi Calm Calm - N/A   Clear
3:57 AM 25.7 °F - 23.0 °F 89% 30.17 in 10.0 mi Calm Calm - N/A   Clear
4:17 AM 25.0 °F - 23.0 °F 92% 30.16 in 10.0 mi Calm Calm - N/A   Clear
4:36 AM 24.8 °F - 23.4 °F 94% 30.16 in 10.0 mi Calm Calm - N/A   Clear
4:57 AM 23.9 °F - 22.5 °F 94% 30.16 in 10.0 mi Calm Calm - N/A   Clear
5:17 AM 23.7 °F - 23.0 °F 97% 30.15 in 10.0 mi Calm Calm - N/A   Clear
5:36 AM 21.6 °F - 20.7 °F 96% 30.15 in 10.0 mi Calm Calm - N/A   Clear
5:57 AM 22.1 °F - 21.6 °F 98% 30.15 in 10.0 mi Calm Calm - N/A   Clear
6:17 AM 22.5 °F - 21.9 °F 98% 30.14 in 10.0 mi Calm Calm - N/A   Clear
6:36 AM 22.1 °F - 21.7 °F 99% 30.13 in 10.0 mi Calm Calm - N/A   Clear
6:57 AM 23.5 °F - 23.2 °F 99% 30.13 in 10.0 mi Calm Calm - N/A   Clear
7:16 AM 21.4 °F - 21.2 °F 99% 30.14 in 10.0 mi Calm Calm - N/A   Clear
7:37 AM 21.6 °F - 21.2 °F 99% 30.14 in 10.0 mi Calm Calm - N/A   Clear
7:57 AM 22.1 °F - 21.9 °F 99% 30.14 in 10.0 mi Calm Calm - N/A   Clear
8:16 AM 22.1 °F - 21.4 °F 97% 30.13 in 10.0 mi Calm Calm - N/A   Clear
8:37 AM 24.1 °F 19.7 °F 23.2 °F 96% 30.13 in 10.0 mi SSE 3.5 mph - N/A   Clear
8:57 AM 28.4 °F 24.6 °F 26.6 °F 93% 30.12 in 10.0 mi South 3.5 mph - N/A   Clear
9:16 AM 32.7 °F 29.6 °F 27.3 °F 81% 30.12 in 10.0 mi South 3.5 mph - N/A   Clear
9:37 AM 34.0 °F 31.0 °F 27.3 °F 77% 30.12 in 10.0 mi South 3.5 mph - N/A   Clear
9:57 AM 36.0 °F 30.3 °F 25.9 °F 67% 30.11 in 10.0 mi South 6.9 mph - N/A   Clear
10:17 AM 36.9 °F 31.4 °F 25.0 °F 62% 30.10 in 10.0 mi SSW 6.9 mph - N/A   Clear
10:37 AM 37.6 °F 31.6 °F 24.8 °F 60% 30.10 in 10.0 mi South 8.1 mph - N/A   Clear
10:56 AM 38.5 °F 34.1 °F 24.4 °F 57% 30.09 in 10.0 mi South 5.8 mph - N/A   Clear
11:17 AM 38.8 °F 33.8 °F 23.2 °F 53% 30.08 in 10.0 mi South 6.9 mph - N/A   Clear
11:37 AM 39.6 °F 33.0 °F 21.9 °F 49% 30.08 in 10.0 mi South 10.4 mph - N/A   Clear
11:56 AM 40.5 °F 35.1 °F 19.2 °F 43% 30.07 in 10.0 mi SSW 8.1 mph - N/A   Clear
12:17 PM 41.7 °F 37.3 °F 21.0 °F 44% 30.06 in 10.0 mi South 6.9 mph - N/A   Clear
12:36 PM 42.3 °F 36.8 °F 19.9 °F 41% 30.06 in 10.0 mi South 9.2 mph - N/A   Clear
12:57 PM 41.9 °F 36.9 °F 20.3 °F 42% 30.04 in 10.0 mi SSE 8.1 mph - N/A   Clear
1:17 PM 42.1 °F 36.1 °F 21.9 °F 45% 30.03 in 10.0 mi South 10.4 mph - N/A   Clear
1:36 PM 42.1 °F 36.1 °F 23.7 °F 48% 30.02 in 10.0 mi SSE 10.4 mph - N/A   Clear
1:57 PM 42.8 °F 37.5 °F 23.5 °F 47% 30.01 in 10.0 mi SE 9.2 mph - N/A   Clear
2:17 PM 43.0 °F 38.2 °F 24.1 °F 47% 30.00 in 10.0 mi SSE 8.1 mph - N/A   Clear
2:36 PM 42.4 °F 36.5 °F 25.3 °F 51% 30.00 in 10.0 mi SSE 10.4 mph - N/A   Clear
2:57 PM 42.3 °F 35.9 °F 25.3 °F 51% 29.99 in 10.0 mi SSE 11.5 mph 17.3 mph N/A   Clear
3:17 PM 41.9 °F 36.3 °F 25.7 °F 53% 29.98 in 10.0 mi SSE 9.2 mph - N/A   Clear
3:36 PM 40.5 °F 34.1 °F 25.9 °F 56% 29.98 in 10.0 mi SSE 10.4 mph 16.1 mph N/A   Mostly Cloudy
3:57 PM 40.1 °F 33.2 °F 25.5 °F 56% 29.98 in 10.0 mi SSE 11.5 mph 17.3 mph N/A   Overcast
4:16 PM 39.7 °F 32.7 °F 25.7 °F 57% 29.97 in 10.0 mi SSE 11.5 mph 17.3 mph N/A   Overcast
4:37 PM 39.6 °F 33.0 °F 25.7 °F 58% 29.97 in 10.0 mi SSE 10.4 mph - N/A   Overcast
4:57 PM 38.8 °F 32.6 °F 26.2 °F 61% 29.96 in 10.0 mi SSE 9.2 mph - N/A   Overcast
5:16 PM 38.3 °F 32.5 °F 26.4 °F 62% 29.96 in 10.0 mi SE 8.1 mph - N/A   Overcast
5:37 PM 37.6 °F 35.1 °F 27.3 °F 66% 29.96 in 10.0 mi SSW 3.5 mph - N/A   Overcast
5:57 PM 38.1 °F 32.9 °F 27.5 °F 66% 29.94 in 10.0 mi ESE 6.9 mph - N/A   Overcast
6:16 PM 38.8 °F - 27.5 °F 64% 29.94 in 10.0 mi Calm Calm - N/A   Overcast
6:37 PM 38.5 °F 36.1 °F 28.0 °F 66% 29.92 in 10.0 mi NE 3.5 mph - N/A   Overcast
6:57 PM 38.1 °F 34.6 °F 28.2 °F 68% 29.92 in 10.0 mi ESE 4.6 mph - N/A   Overcast
7:16 PM 38.5 °F 36.1 °F 27.9 °F 66% 29.89 in 10.0 mi East 3.5 mph - N/A   Overcast
7:37 PM 38.5 °F - 28.2 °F 67% 29.90 in 10.0 mi Calm Calm - N/A   Overcast
7:57 PM 37.9 °F 35.5 °F 28.4 °F 69% 29.89 in 10.0 mi SE 3.5 mph - N/A   Overcast
8:17 PM 37.4 °F 32.8 °F 29.1 °F 72% 29.88 in 10.0 mi SE 5.8 mph - N/A   Overcast
8:37 PM 37.4 °F 32.1 °F 29.3 °F 73% 29.87 in 10.0 mi SE 6.9 mph - N/A   Overcast
8:56 PM 37.4 °F 32.8 °F 29.8 °F 74% 29.88 in 10.0 mi South 5.8 mph - N/A   Light Drizzle
9:17 PM 36.7 °F - 30.9 °F 80% 29.87 in 10.0 mi Calm Calm - N/A Rain Rain
9:36 PM 36.0 °F - 32.0 °F 86% 29.86 in 10.0 mi Calm Calm - N/A   Drizzle
9:57 PM 34.9 °F - 32.7 °F 92% 29.86 in 10.0 mi Calm Calm - N/A Rain Rain
10:17 PM 34.7 °F - 33.1 °F 94% 29.84 in 10.0 mi Calm Calm - N/A   Light Drizzle
10:36 PM 34.2 °F - 33.8 °F 99% 29.84 in 10.0 mi Calm Calm - N/A   Drizzle
10:57 PM 36.7 °F 34.1 °F 34.3 °F 91% 29.83 in 10.0 mi SSW 3.5 mph - N/A   Light Drizzle
11:17 PM 37.4 °F 34.9 °F 34.2 °F 88% 29.82 in 10.0 mi SSW 3.5 mph - N/A   Overcast
11:36 PM 35.8 °F - 33.6 °F 92% 29.82 in 10.0 mi Calm Calm - N/A Rain Light Rain
11:57 PM 37.8 °F 34.2 °F 34.3 °F 87% 29.81 in 10.0 mi SW 4.6 mph - N/A Rain Rain